Change the Weather History Date:

Sunday, March 24, 2013

  Actual Average Record
Temperature  
Mean Temperature 35 °F -  
Max Temperature 41 °F 37 °F 44 °F (1999)
Min Temperature 29 °F 28 °F 19 °F (2014)
Degree Days  
Heating Degree Days 30    
Moisture  
Dew Point 28 °F    
Average Humidity 79    
Maximum Humidity 93    
Minimum Humidity 50    
Precipitation  
Precipitation 0.00 in - - ()
Sea Level Pressure  
Sea Level Pressure 29.51 in    
Wind  
Wind Speed 10 mph ()    
Max Wind Speed 16 mph    
Max Gust Speed 18 mph    
Visibility 7.3 miles    
Events Snow    
Averages and records for this station are not official NWS values.
T = Trace of Precipitation, MM = Missing Value Source: Averaged Metar Reports

Daily Weather History Graph

Daily Weather History Graph

Search for Another Location

Airport or City:

Trip Planner

Search our weather history database for the weather conditions in past years. The results will help you decide how hot, cold, wet, or windy it might be!

Date:

Astronomy

Mar. 24, 2013 Rise Set
Actual Time 6:55 AM ADT 7:17 PM ADT
Civil Twilight 6:26 AM ADT 7:46 PM ADT
Nautical Twilight 5:52 AM ADT 8:20 PM ADT
Astronomical Twilight 5:17 AM ADT 8:55 PM ADT
Moon 4:36 PM ADT (3/24) 5:08 AM ADT (3/24)
Length of Visible Light 13h 19m
Length of Day
12h 21m
Waxing Gibbous, 91% of the Moon is Illuminated
Mar 24
Waxing Gibbous
Mar 27
Full
Apr 3
Last Quarter
Apr 10
New
Apr 18
First Quarter

Hourly Weather History & Observations

Time (ADT) Temp. Windchill Dew Point Humidity Pressure Visibility Wind Dir Wind Speed Gust Speed Precip Events Conditions
12:00 AM 32 °F - 28 °F 77% 29.45 in 7 mi SSW 15.0 mph - -   Overcast
12:00 AM 32.0 °F 21.6 °F 28.4 °F 87% 29.45 in 7.0 mi SSW 15.0 mph - N/A   Overcast
1:00 AM 32.0 °F 24.8 °F 28.4 °F 87% 29.44 in 7.0 mi SSW 8.1 mph - N/A   Partly Cloudy
1:38 AM 33.8 °F 24.8 °F 30.2 °F 87% 29.43 in 5.0 mi SW 12.7 mph - N/A Snow Light Snow
1:41 AM 33.8 °F 24.3 °F 28.4 °F 81% 29.43 in 3.5 mi SW 13.8 mph - N/A Snow Light Snow
1:45 AM 33.8 °F 26.4 °F 30.2 °F 87% 29.43 in 2.5 mi WSW 9.2 mph - N/A Snow Light Snow
1:59 AM 33.8 °F 27.0 °F 30.2 °F 87% 29.42 in 2.5 mi SW 8.1 mph - N/A Snow Light Snow
2:00 AM 33.8 °F 27.7 °F 30.2 °F 87% 29.43 in 4.0 mi SW 6.9 mph - N/A   Mostly Cloudy
2:54 AM 33.8 °F 25.8 °F 30.2 °F 87% 29.42 in 6.0 mi SSW 10.4 mph - N/A   Overcast
3:00 AM 33 °F - 30 °F 83% 29.43 in 6 mi SSW 11.5 mph - -   Overcast
3:00 AM 33.8 °F 24.8 °F 30.2 °F 87% 29.43 in 6.0 mi SW 12.7 mph - N/A   Overcast
3:23 AM 32.0 °F 24.2 °F 28.4 °F 87% 29.42 in 5.0 mi WSW 9.2 mph - N/A   Mostly Cloudy
4:00 AM 32.0 °F 24.2 °F 28.4 °F 87% 29.42 in 7.0 mi West 9.2 mph - N/A   Scattered Clouds
5:00 AM 33.8 °F 27.7 °F 30.2 °F 87% 29.42 in 5.0 mi West 6.9 mph - N/A   Overcast
5:49 AM 32.0 °F 21.6 °F 30.2 °F 93% 29.43 in 5.0 mi West 15.0 mph - N/A Snow Light Snow
5:54 AM 32.0 °F 21.6 °F 28.4 °F 87% 29.43 in 2.2 mi West 15.0 mph - N/A Snow Light Snow
5:56 AM 30.2 °F 20.8 °F 28.4 °F 93% 29.43 in 1.4 mi West 11.5 mph 18.4 mph N/A Snow Light Snow
5:58 AM 30.2 °F 21.3 °F 28.4 °F 93% 29.43 in 1.0 mi West 10.4 mph 18.4 mph N/A Snow Light Snow
6:00 AM 31 °F - 28 °F 85% 29.44 in 1 mi West 12.7 mph - - Snow Light Snow
6:00 AM 30.2 °F 20.8 °F 28.4 °F 93% 29.44 in 1.0 mi West 11.5 mph 18.4 mph N/A Snow Light Snow
6:02 AM 30.2 °F 20.8 °F 28.4 °F 93% 29.43 in 0.6 mi West 11.5 mph 17.3 mph N/A Snow Light Snow
6:08 AM 30.2 °F 23.4 °F 28.4 °F 93% 29.43 in 1.0 mi WNW 6.9 mph - N/A Snow Light Snow
6:13 AM 30.2 °F 20.8 °F 28.4 °F 93% 29.43 in 3.5 mi NW 11.5 mph - N/A Snow Light Snow
6:19 AM 30.2 °F 21.3 °F 28.4 °F 93% 29.43 in 9.0 mi NW 10.4 mph - N/A   Overcast
6:32 AM 30.2 °F 23.4 °F 28.4 °F 93% 29.43 in 9.0 mi NW 6.9 mph - N/A   Mostly Cloudy
7:00 AM 30.2 °F 25.4 °F 26.6 °F 86% 29.44 in 9.0 mi WNW 4.6 mph - N/A   Mostly Cloudy
7:17 AM 30.2 °F 24.3 °F 28.4 °F 93% 29.44 in 9.0 mi WNW 5.8 mph - N/A   Mostly Cloudy
7:25 AM 32.0 °F 25.6 °F 28.4 °F 87% 29.44 in 9.0 mi NW 6.9 mph - N/A   Mostly Cloudy
7:34 AM 32.0 °F 25.6 °F 28.4 °F 87% 29.44 in 9.0 mi NW 6.9 mph - N/A   Partly Cloudy
8:00 AM 32.0 °F 26.4 °F 28.4 °F 87% 29.46 in 9.0 mi NW 5.8 mph - N/A   Partly Cloudy
8:06 AM 32.0 °F 28.7 °F 28.4 °F 87% 29.45 in 9.0 mi WNW 3.5 mph - N/A   Mostly Cloudy
8:17 AM 33.8 °F 29.6 °F 30.2 °F 87% 29.46 in 9.0 mi NW 4.6 mph - N/A   Mostly Cloudy
8:23 AM 33.8 °F 28.6 °F 28.4 °F 81% 29.46 in 9.0 mi NW 5.8 mph - N/A   Scattered Clouds
9:00 AM 35 °F - 28 °F 68% 29.47 in 9 mi NW 8.1 mph - -  
9:00 AM 35.6 °F 29.9 °F 28.4 °F 75% 29.47 in 9.0 mi NW 6.9 mph - N/A   Mostly Cloudy
10:00 AM 37.4 °F 31.4 °F 28.4 °F 70% 29.49 in 9.0 mi WNW 8.1 mph - N/A   Mostly Cloudy
11:00 AM 37.4 °F 31.4 °F 26.6 °F 65% 29.50 in 9.0 mi NW 8.1 mph - N/A   Scattered Clouds
12:00 PM 39 °F - 27 °F 51% 29.52 in 9 mi NW 10.4 mph - -  
12:00 PM 39.2 °F 32.5 °F 26.6 °F 61% 29.52 in 9.0 mi NW 10.4 mph - N/A   Partly Cloudy
1:00 PM 39.2 °F 31.6 °F 26.6 °F 61% 29.52 in 9.0 mi NW 12.7 mph - N/A   Partly Cloudy
2:00 PM 37.4 °F 28.9 °F 26.6 °F 65% 29.53 in 9.0 mi NW 13.8 mph - N/A   Partly Cloudy
2:12 PM 39.2 °F 31.6 °F 26.6 °F 61% 29.53 in 9.0 mi NW 12.7 mph - N/A   Mostly Cloudy
3:00 PM 38 °F - 26 °F 50% 29.54 in 9 mi NW 11.5 mph - -  
3:00 PM 37.4 °F 29.8 °F 26.6 °F 65% 29.54 in 9.0 mi NW 11.5 mph - N/A   Partly Cloudy
4:00 PM 37.4 °F 29.8 °F 26.6 °F 65% 29.54 in 9.0 mi NNW 11.5 mph - N/A   Clear
4:25 PM 37.4 °F 29.3 °F 28.4 °F 70% 29.55 in 9.0 mi NNW 12.7 mph - N/A   Mostly Cloudy
4:28 PM 35.6 °F 26.6 °F 28.4 °F 75% 29.55 in 9.0 mi NNW 13.8 mph - N/A   Mostly Cloudy
5:00 PM 35.6 °F 27.1 °F 28.4 °F 75% 29.55 in 9.0 mi NNW 12.7 mph - N/A   Mostly Cloudy
5:24 PM 35.6 °F 26.6 °F 28.4 °F 75% 29.55 in 9.0 mi NNW 13.8 mph - N/A   Scattered Clouds
5:51 PM 35.6 °F 27.1 °F 26.6 °F 70% 29.56 in 9.0 mi NNW 12.7 mph - N/A   Mostly Cloudy
6:00 PM 34 °F - 26 °F 64% 29.56 in 9 mi NNW 12.7 mph - -  
6:00 PM 33.8 °F 25.3 °F 26.6 °F 75% 29.56 in 9.0 mi North 11.5 mph - N/A   Mostly Cloudy
6:32 PM 33.8 °F 25.3 °F 26.6 °F 75% 29.57 in 9.0 mi NNW 11.5 mph - N/A   Partly Cloudy
6:46 PM 33.8 °F 24.3 °F 26.6 °F 75% 29.58 in 9.0 mi NNW 13.8 mph - N/A   Mostly Cloudy
7:00 PM 33.8 °F 24.8 °F 26.6 °F 75% 29.59 in 9.0 mi NNW 12.7 mph - N/A   Mostly Cloudy
8:00 PM 33.8 °F 23.5 °F 26.6 °F 75% 29.60 in 9.0 mi NNW 16.1 mph - N/A   Mostly Cloudy
8:15 PM 33.8 °F 24.8 °F 26.6 °F 75% 29.60 in 9.0 mi NNW 12.7 mph - N/A   Scattered Clouds
8:31 PM 33.8 °F 24.8 °F 26.6 °F 75% 29.60 in 9.0 mi NNW 12.7 mph - N/A   Mostly Cloudy
9:00 PM 34 °F - 27 °F 66% 29.61 in 9 mi NNW 12.7 mph - -  
9:00 PM 33.8 °F 24.8 °F 26.6 °F 75% 29.61 in 9.0 mi NNW 12.7 mph - N/A   Mostly Cloudy
9:06 PM 33.8 °F 25.3 °F 26.6 °F 75% 29.61 in 9.0 mi NNW 11.5 mph - N/A   Mostly Cloudy
9:18 PM 33.8 °F 24.3 °F 28.4 °F 81% 29.61 in 5.0 mi NNW 13.8 mph - N/A Snow Light Snow
9:22 PM 33.8 °F 24.3 °F 28.4 °F 81% 29.61 in 5.0 mi NNW 13.8 mph - N/A   Mostly Cloudy
9:37 PM 32.0 °F 21.2 °F 28.4 °F 87% 29.62 in 9.0 mi North 16.1 mph - N/A   Overcast
10:00 PM 33.8 °F 23.9 °F 26.6 °F 75% 29.62 in 9.0 mi NNW 15.0 mph - N/A   Overcast
10:22 PM 33.8 °F 24.3 °F 26.6 °F 75% 29.62 in 9.0 mi NNW 13.8 mph - N/A   Overcast
10:31 PM 33.8 °F 23.9 °F 28.4 °F 81% 29.61 in 8.0 mi NNW 15.0 mph - N/A Snow Light Snow
10:48 PM 33.8 °F 24.3 °F 28.4 °F 81% 29.61 in 9.0 mi North 13.8 mph - N/A   Overcast
10:50 PM 33.8 °F 24.3 °F 28.4 °F 81% 29.61 in 9.0 mi NNW 13.8 mph - N/A   Mostly Cloudy
11:00 PM 33.8 °F 24.8 °F 28.4 °F 81% 29.61 in 9.0 mi NNW 12.7 mph - N/A   Partly Cloudy
11:24 PM 33.8 °F 24.3 °F 26.6 °F 75% 29.61 in 9.0 mi NNW 13.8 mph - N/A   Mostly Cloudy
11:38 PM 33.8 °F 24.3 °F 28.4 °F 81% 29.61 in 9.0 mi NNW 13.8 mph - N/A   Mostly Cloudy
11:47 PM 33.8 °F 25.3 °F 26.6 °F 75% 29.61 in 9.0 mi NNW 11.5 mph - N/A   Mostly Cloudy